Regional Weather Roundup
Issued by NWS Newport/Morehead, NC

Current Version | Previous Version | Text Only | Print | Product List | Glossary Off
Versions: 1 2 3 4 5 6 7 8 9 10 11 12 13 14 15 16 17 18 19 20 21 22 23 24 25 26 27 28 29 30 31 32 33 34 35 36 37 38 39 40 41 42 43 44 45 46 47 48 49 50
000 ASUS42 KMHX 031224 RWRMHX WEATHER ROUNDUP FOR EASTERN NORTH CAROLINA NATIONAL WEATHER SERVICE NEWPORT/MOREHEAD CITY NC 700 AM EST SAT DEC 03 2016 NOTE: "FAIR" INDICATES FEW OR NO CLOUDS BELOW 12,000 FEET WITH NO SIGNIFICANT WEATHER AND/OR OBSTRUCTIONS TO VISIBILITY NCZ015>017-031-032-045>047-102-103-031300- NORTH COAST CITY SKY/WX TMP DP RH WIND PRES REMARKS EDENTON CLEAR 37 33 87 CALM 30.24S ELIZABETH CITY CLEAR 34 30 85 W8 30.22R KITTY HAWK SUNNY 42 33 71 NW7 30.19R MANTEO CLEAR 43 31 63 N14G20 30.21R $$ NCZ045>047-081-094-103-104-031300- CENTRAL COAST CITY SKY/WX TMP DP RH WIND PRES REMARKS FRISCO CLEAR 45 31 58 N10G22 30.20R $$ NCZ095-097-098-100-101-031300- SOUTHERN COAST CITY SKY/WX TMP DP RH WIND PRES REMARKS BEAUFORT CLEAR 41 34 76 N8 30.23 CEDAR ISLAND NOT AVBL JACKSONVILLE CLEAR 40 33 76 N7 30.24R PINEY ISLAND SUNNY N/A N/A N/A N13 30.22R WILMINGTON PTCLDY 39 32 76 N7 30.24R $$ NCZ011>013-027>030-043-044-078>080-089-090>093-098-031300- COASTAL PLAIN CITY SKY/WX TMP DP RH WIND PRES REMARKS AHOSKIE CLEAR 31 28 90 CALM 30.25R CLINTON CLEAR 39 32 76 N6 30.26R ELIZABETHTOWN PTCLDY 36 33 88 CALM 30.25R GOLDSBORO CLEAR 39 29 67 NW5 30.24R GREENVILLE CLEAR 32 32 100 CALM 30.26R HAVELOCK CLEAR 42 33 70 N10 30.24R KENANSVILLE CLEAR 39 28 65 N7 30.26R KINSTON CLEAR 34 30 86 NW3 30.26R NEW BERN CLEAR 38 31 76 NW5 30.25R RICHLANDS CLEAR 35 31 85 CALM 30.25R ROCKY MOUNT CLOUDY 36 29 75 NW6 30.25S WASHINGTON CLEAR 34 30 86 NW5 30.25R WHITEVILLE CLEAR 40 32 72 CALM 30.25R $$ AMZ130-135-150-152-154-156-158-170-250-252-270-ANZ085-086-088-633-658-670-031300- MARINE OBSERVATIONS STATION/POSITION TIME TEMP WIND PRES WAVE SWELL AIR SEA DIR/SP/G HT/PER HT/PER (UTC) (F) (DEG/KT/KT) (MB) (FT/S) (FT/S) CHESAPEAKE LIGHT NOT AVBL 64 E VA BEACH 1150 49 60 330/ 23/ 27 1020.2 7/ 7 DUCK 1200 43 56 310/ 15/ 17 1022.1 2 E DUCK NOT AVBL OREGON INLET 1200 44 55 320/ 12/ 14 1022.6 13E OREGON INLT 1200 62 N/A 7/ 7 3/ 7 HATTERAS CG 1200 47 58 340/ 22/ 29 1021.9 DIAMOND BUOY 1150 50 75 360/ 21/ 29 1021.7 6/ 6 2/11 CAPE LOOKOUT 1200 43 350/ 13/ 16 1023.1 BEAUFORT LAB 1200 42 56 350/ 7/ 13 1022.5 30 SE NEW RVR IN 1208 50 71 20/ 19/ 27 1022.9 30 SE NEW RVR IN NOT AVBL 27 SE WRIGHTSVLE 1208 51 69 20/ 21/ 29 1022.9 5 SE WRIGHTSVLE 1208 45 63 20/ 19/ 33 1023.2 225 S CAPE HAT 1150 65 74 350/ 16/ 19 1019.2 5/ 5 2/ 8 41 SE CHARLESTON 1150 61 75 10/ 17/ 21 1022.4 3/ 5 2/ 8 $$

USA.gov is the U.S. government's official web portal to all federal, state and local government web resources and services.